sat.trackr.live / text

‹ back to catalog

STARLINK-11465 [DTC]

NORAD 62057 · 2024-217A

PAYLOAD ACTIVE UNKNOWN

§ Identity

Operator
Country
US
Launch date
2024-11-24
Launch site
AFWTR
Launch vehicle
Mass (kg)
RCS (m²)

Purposes: comms

External: N2YO · Heavens-Above · Gunter

§ Orbital elements

Epoch: 2026-09-21T06:21:05.899104Z

Period
91.73 min
Inclination
53.1571°
Eccentricity
0.0001018
Mean motion
15.69771555 rev/d
Perigee alt
358.9 km
Apogee alt
360.2 km
Semi-major
6,737.7 km
B*
1.4950e-3
RAAN
186.9349°
Arg perigee
82.5572°
Mean anomaly
277.5562°
Rev number
10,589

§ Raw data

STARLINK-11465 [DTC]1 62057U 24217A   26264.26465161  .00185101  00000+0  14950-2 0  99932 62057  53.1571 186.9349 0001018  82.5572 277.5562 15.69771555105891

JSON: /api/v1/satellites/62057 · /tle

For live sub-satellite position, see the globe view (requires WebGL).

§ Visibility from observer

Set your observer location to see the next 7 days of passes ≥ 10°. The values pass through the URL so the page stays shareable.

No JS? Fill the form by hand. The geolocation button needs JavaScript.